Location: Mount Dana
(37.8997°N, 119.2213°W)
Time: 14:33:57
(UTC+00:00)

Daily predictions for brighter satellites

Satellite Brightness Start Highest point End
(mag) Time Altitude Azimuth Time Altitude Azimuth Time Altitude Azimuth
Centaur D AC-29 2.9 12:05:28 11° S 12:05:28 11° S 12:05:48 10° S
Cosmos 923 Rocket 4.4 12:00:59 10° NW 12:05:48 39° WSW 12:10:38 10° S
Cosmos 2297 3.7 12:01:41 17° SSW 12:06:14 78° WNW 12:11:59 10° NNE
Cosmos 2369 Rocket 3.4 12:05:22 10° S 12:10:33 41° ESE 12:15:45 10° NE
Cosmos 1943 Rocket 2.3 12:05:23 10° SSW 12:11:02 81° ESE 12:16:43 10° NNE
Cosmos 1378 Rocket 4.3 12:10:24 10° S 12:14:44 55° E 12:19:03 10° NNE
Cosmos 1727 Rocket 4.1 12:09:47 10° S 12:15:57 81° E 12:22:13 10° N
GP-B 3.6 12:13:59 10° N 12:18:23 63° E 12:22:47 10° S
Cosmos 1733 3.1 12:15:06 10° N 12:18:54 88° WSW 12:22:39 10° S
Cosmos 1356 Rocket 3.4 12:17:18 10° NNW 12:21:20 58° W 12:25:24 10° S
ARIANE 5 R/B 4.0 12:17:41 10° NNW 12:21:23 20° WNW 12:23:43 15° W
Cosmos 1674 Rocket 3.5 12:19:57 10° S 12:24:16 87° E 12:28:39 10° N
Abrixas rocket 2.6 12:25:07 21° SSW 12:25:07 21° SSW 12:26:24 10° SSE
NOSS 3-4 (A) 4.3 12:20:43 10° NNW 12:27:53 71° NE 12:35:51 10° SE
NOSS 3-4 (C) 4.3 12:20:50 10° NNW 12:27:59 70° NE 12:35:54 10° SE
Helios 1B 4.5 12:25:56 10° S 12:30:14 80° WSW 12:34:35 10° NNW
Cosmos 1937 Rocket 4.4 12:28:38 14° WSW 12:32:11 30° WNW 12:36:41 10° N
ATLAS 5 CENTAUR R/B 2.7 12:27:32 10° NW 12:33:17 47° WSW 12:39:50 10° S
Cosmos 1842 3.2 12:29:30 10° S 12:33:23 85° W 12:37:17 10° N
Cosmos 2221 Rocket 4.2 12:30:41 10° SW 12:34:46 35° WNW 12:38:55 10° N
Cosmos 2151 Rocket 3.6 12:31:12 10° NNW 12:35:41 66° W 12:40:09 10° S
DELTA 2 R/B (1) 3.7 12:32:55 12° W 12:38:07 79° N 12:43:44 10° E
Meteor 1-15 Rocket 4.4 12:33:02 10° NNW 12:38:22 48° W 12:43:42 10° SSW
Okean 2 Rocket 3.5 12:37:28 10° NNW 12:41:39 41° W 12:45:47 10° SSW
ATLAS 2AS CENTAUR R/B 3.7 12:35:20 10° NNW 12:42:28 53° NE 12:49:00 10° SE
Meteor 1-31 Rocket 3.3 12:43:05 10° NNE 12:46:52 61° E 12:50:39 10° S
Milstar 3 4.3 12:39:34 10° WSW 12:47:47 53° S 13:03:15 10° ESE
CZ-2C R/B 4.5 12:45:59 10° NNW 12:48:15 16° WNW 12:50:33 10° WSW
Landsat 5 3.6 12:44:22 10° S 12:48:42 67° WSW 12:53:11 10° NNW
CZ-4B R/B 4.2 12:50:10 10° NNE 12:54:21 80° ESE 12:58:40 10° S
Cosmos 1484 Rocket 3.4 12:51:44 10° N 12:55:27 40° WNW 12:59:12 10° SW
CZ-4C R/B 3.3 12:55:53 10° S 12:59:20 47° W 13:02:45 10° NNW
Cosmos 2150 Rocket 4.1 12:56:37 10° SSW 13:02:03 71° WNW 13:07:30 10° NNE
FENGYUN 3A 4.4 12:57:28 10° N 13:02:17 34° WNW 13:07:04 10° SW
